Location: Harwich
(41.7160°N, 69.9939°W)
Time: 10:54:24
(UTC+02:00)

A-11 Canister half - Pass Details

Date: 23 February 2024
Orbit: 1513 x 1686 km, 47.2° (Epoch: 24 April)

Event Time Altitude Azimuth Distance (km) Brightness Sun altitude
Exits shadow 08:20:12 55° 76° (ENE) 1,934 9.5 -44.8°
Drops below altitude 10° 08:27:31 10° 65° (ENE) 3,873 11.7 -43.7°
Sets 08:30:36 0° 64° (ENE) 4,839 12.4 -43.2°
